Location: Madrid
(40.4000°N, 3.6830°W)
Time: 11:42:17
(UTC+01:00)

ISS - Pass Details

Date: 26 October 2020
Orbit: 417 x 420 km, 51.6° (Epoch: 29 October)

Event Time Altitude Azimuth Distance (km) Brightness Sun altitude
Exits shadow 06:40:08 19° 285° (WNW) 1,066 -2.3 -11.6°
Maximum altitude 06:41:51 30° 333° (NNW) 783 -2.7 -11.3°
Drops below altitude 10° 06:44:51 10° 37° (NE) 1,497 -0.6 -10.7°
Sets 06:47:07 0° 48° (NE) 2,363 0.7 -10.3°
